Torna al catalogo

DELTA 1 DEB

AttivoSSO
NORAD 12171·DEBRIS·🇺🇸 United States

Lanciato Mar 5, 1978 da Vandenberg Space Force Base

Loading…

Prossimi Passaggi (prossime 24 ore)

TLE

AggiornatoSource: Space-Track

Epoca: Sep 14, 2026, 07:21 UTC

1 12171U 78026L   26257.30646131 -.00000080  00000-0 -20884-4 0  9997
2 12171  99.2340 277.0597 0036219 228.3409 197.0218 14.04097710334952

Traccia DELTA 1 DEB in tempo reale con AllMySat

Download on the App Store